User: anonymous   Login
Location: Lane
(33.5226°N, 79.8788°W)
Time: 13:43:23
(UTC+00:00)
Language:

Explorer 11/Cluster Stage 4 - Orbit

View from above orbital plane
View from above orbital plane
View from above satellite
View from above satellite

Ground track
Ground track

The orbit data is extracted from the following two-line orbital elements,

1 00107U 61013A   22275.86195486  .00002095  00000-0  25838-3 0  9999
2 00107  28.7884 128.5671 0540680 204.5515 152.8382 14.10475936 84474
Epoch (UTC): 02 October 2022 20:41:12
Eccentricity: 0.0540680
inclination: 28.7884°
perigee height: 466 km
apogee height: 1249 km
right ascension of ascending node: 128.5671°
argument of perigee: 204.5515°
revolutions per day: 14.10475936
mean anomaly at epoch: 152.8382°
orbit number at epoch: 8447

The dashed part of the orbit path shows where the satellite is in the earth's shadow,  

DLR